Location: Martley
(52.2333°N, 2.3667°W)
Time: 00:35:01
(UTC+00:00)

Cosmos 1943 - Pass Details

Date: 11 December 2019
Orbit: 835 x 848 km, 71.0° (Epoch: 17 January)

Event Time Altitude Azimuth Distance (km) Brightness Sun altitude
Exits shadow 05:29:16 52° 262° (W) 1,034 3.2 -23.0°
Maximum altitude 05:29:38 53° 247° (WSW) 1,023 3.3 -22.9°
Drops below altitude 10° 05:35:03 10° 172° (S) 2,443 5.8 -22.1°
Sets 05:37:32 0° 168° (SSE) 3,375 6.6 -21.7°
